This is the latest recevied weather packets stored in our database for station/object IU0SZS-10. If no packets are shown the sender has not sent any weather packets the latest 10 day(s).
| Time | Temp. | Humidity | Pressure | Rain* | Wind** | Luminosity | Snow |
|---|---|---|---|---|---|---|---|
| 1777731277 | 20° C | 25% | 922.6 hPa | - | - | - | - |
| 1777730432 | 20° C | 26% | 922.8 hPa | - | - | - | - |
| 1777730377 | 20° C | 26% | 922.8 hPa | - | - | - | - |
| 1777729531 | 19.44° C | 26% | 922.7 hPa | - | - | - | - |
| 1777729477 | 19.44° C | 26% | 922.7 hPa | - | - | - | - |
| 1777728577 | 19.44° C | 25% | 923 hPa | - | - | - | - |
| 1777727712 | 20° C | 24% | 923.2 hPa | - | - | - | - |
| 1777727676 | 20° C | 24% | 923.2 hPa | - | - | - | - |
| 1777726820 | 19.44° C | 25% | 923.3 hPa | - | - | - | - |
| 1777726776 | 19.44° C | 25% | 923.3 hPa | - | - | - | - |
| 1777725935 | 18.89° C | 25% | 923.4 hPa | - | - | - | - |
| 1777725876 | 18.89° C | 25% | 923.4 hPa | - | - | - | - |
| 1777724976 | 18.89° C | 25% | 923.5 hPa | - | - | - | - |
| 1777724076 | 18.89° C | 25% | 923.5 hPa | - | - | - | - |
| 1777723215 | 18.89° C | 25% | 923.5 hPa | - | - | - | - |
| 1777723175 | 18.89° C | 25% | 923.5 hPa | - | - | - | - |
| 1777722272 | 18.33° C | 26% | 923.7 hPa | - | - | - | - |
| 1777721370 | 18.33° C | 28% | 923.8 hPa | - | - | - | - |
| 1777720470 | 17.78° C | 28% | 923.9 hPa | - | - | - | - |
| 1777719570 | 17.22° C | 27% | 924.2 hPa | - | - | - | - |
| 1777718670 | 17.22° C | 27% | 924.2 hPa | - | - | - | - |
| 1777717804 | 16.67° C | 30% | 924.4 hPa | - | - | - | - |
| 1777717770 | 16.67° C | 30% | 924.4 hPa | - | - | - | - |
| 1777716870 | 16.11° C | 30% | 924.3 hPa | - | - | - | - |
| 1777715970 | 15.56° C | 31% | 924.5 hPa | - | - | - | - |
* Rain since midnight (hover to see other rain measurements)
** Current wind speed in m/s (hover to see current wind gust speed)